Location: ???????????
(54.5822°N, 39.1075°E)
Time: 06:30:50
(UTC+00:00)

Cosmos 1536 - Pass Details

Date: 19 May 2025
Orbit: 494 x 518 km, 82.5° (Epoch: 23 June)

Event Time Altitude Azimuth Distance (km) Brightness Sun altitude
Rises 18:20:15 0° 356° (N) 2,649 7.2 -6.2°
Reaches altitude 10° 18:22:42 10° 10° (N) 1,753 6.0 -6.4°
Maximum altitude 18:25:53 24° 66° (ENE) 1,089 4.2 -6.7°
Drops below altitude 10° 18:29:02 10° 122° (ESE) 1,729 4.7 -7.0°
Enters shadow 18:29:23 - 125° (SE) 1,849 4.9 -7.0°
